Temperature
27 27 27 26 27 28 28 28 27 26 25 25 24 25 25 25 25 25 24 24 22 21 21 20 19 19 18 18 18 17 17 17 17 17 17 17 17 17 17 17 17 17 17 17
26 27 27 26 27 27 27 28 27 26 25 25 24 24 24 24 24 24 23 23 22 21 20 20 19 19 18 18 18 18 18 17 17 17 17 17 17 17 17 17 17 17 16 16
25 26 26 25 26 27 27 28 27 26 25 25 24 24 23 23 23 23 22 22 21 21 20 20 19 19 19 19 18 18 18 18 18 17 17 17 17 17 17 17 17 17 17 16
25 25 24 26 27 27 27 27 27 26 25 24 23 22 22 21 21 21 21 21 20 20 20 19 19 19 19 19 18 18 18 18 18 17 17 17 17 17 17 17 17 17 17 17
24 24 24 25 26 26 25 25 25 24 24 23 22 22 20 20 19 19 19 19 19 19 20 19 19 19 19 19 18 18 18 18 17 17 17 17 17 17 17 17 17 17 17 16
23 23 23 23 24 25 25 23 23 23 23 22 22 21 19 18 18 18 18 18 18 19 19 19 19 19 19 18 18 18 18 18 17 17 17 17 17 17 17 17 17 16 16 16
22 22 22 21 22 24 23 21 22 21 21 21 20 19 18 18 17 17 17 17 17 18 18 18 18 18 18 18 17 17 17 17 17 17 17 17 17 17 16 16 16 16 16 16
22 21 20 20 21 20 19 20 20 20 19 19 18 17 17 16 16 16 16 16 16 16 16 16 17 17 17 17 17 17 17 17 17 17 16 16 16 16 16 16 16 15 15 15
20 19 19 18 18 18 18 19 19 18 18 18 17 17 16 15 15 15 15 15 15 15 15 15 15 16 16 15 16 16 16 16 16 16 16 15 15 15 15 15 15 15 14 14
19 19 18 18 18 17 17 17 17 17 17 17 16 15 15 14 14 14 14 14 14 14 14 14 14 14 14 15 15 15 15 15 15 15 15 15 15 15 14 14 14 14 14 14
18 18 18 17 16 16 16 16 16 16 16 15 14 14 13 13 13 13 13 13 13 13 13 13 13 13 14 14 14 14 14 14 14 14 14 14 14 14 14 14 13 13 13 13
18 18 17 16 15 15 15 15 15 15 14 14 13 13 12 12 12 12 12 12 12 12 12 12 12 13 13 13 13 13 14 14 14 14 14 14 13 13 13 13 13 13 13 13
17 17 16 15 14 14 14 14 14 13 13 12 12 12 12 12 12 11 11 11 11 11 11 11 12 12 12 12 13 13 13 13 13 13 13 13 13 13 13 12 12 12 12 12
16 16 15 14 14 14 13 13 13 12 12 12 12 12 12 11 11 11 11 11 11 11 11 11 11 11 12 12 12 13 13 13 13 13 13 13 13 13 13 12 12 12 11 11
16 15 14 14 13 13 13 13 12 12 12 12 12 11 11 11 11 11 11 11 11 11 11 11 11 11 11 12 12 12 12 13 13 13 13 13 13 13 12 12 12 12 11 11
15 15 14 14 13 13 13 13 12 12 12 11 11 11 11 11 11 11 11 11 10 10 10 10 10 11 11 11 12 12 12 12 12 13 13 13 12 12 12 12 11 11 10 10
15 15 14 14 13 13 13 13 12 12 12 11 11 11 11 11 11 10 10 10 10 10 10 10 10 10 11 11 11 12 12 12 12 12 12 12 12 11 11 11 11 10 10 9
15 14 14 14 13 13 13 13 12 12 12 12 11 11 11 11 11 10 10 10 10 10 10 10 10 10 10 11 11 11 11 11 11 11 11 11 11 11 10 10 10 10 9 9
14 14 14 13 13 13 13 13 12 12 12 12 11 11 11 11 11 10 10 10 10 9 9 9 9 10 10 10 10 10 11 11 10 10 10 10 10 10 9 9 9 9 8 8
13 13 13 13 13 13 12 12 12 12 12 11 11 11 11 11 10 10 10 9 9 9 9 9 9 9 9 9 10 10 10 9 9 9 9 9 9 9 8 8 8 7 7 7
13 13 13 12 12 12 12 12 12 11 11 11 11 11 10 10 10 10 10 9 8 8 8 8 9 8 9 9 9 9 9 9 8 8 8 8 8 7 7 7 7 6 6 6
12 12 12 12 12 11 11 11 11 11 11 11 10 10 10 10 10 9 9 8 8 8 8 8 8 8 8 8 8 8 8 8 8 7 7 7 7 7 6 6 6 6 5 5
11 11 11 11 11 11 11 11 11 11 10 10 10 10 10 10 9 9 8 8 8 8 7 7 7 7 7 7 7 7 7 7 6 6 6 6 6 6 5 5 5 5 4 4
11 11 11 10 11 11 10 10 10 10 10 10 9 9 9 9 9 8 8 7 7 7 7 7 7 7 7 6 6 6 6 6 6 6 5 5 5 5 4 4 4 4 4 3
10 10 10 10 10 10 10 10 10 10 10 9 9 9 9 8 8 8 7 7 7 7 6 6 6 6 6 6 6 6 5 5 5 5 4 4 4 4 4 3 3 3 3 3
10 10 9 9 10 10 10 10 10 10 9 9 9 8 8 8 7 7 7 7 6 6 6 6 6 6 6 5 5 5 5 5 4 4 4 4 3 3 3 3 3 3 3 2
9 9 9 9 9 9 9 9 9 9 9 9 8 8 8 7 7 7 7 6 6 6 6 6 6 5 5 5 5 4 4 4 4 4 3 3 3 3 3 3 2 2 2 2
Wind_Speed
9 7 8 10 12 11 11 11 8 4 3 4 3 3 3 5 7 7 8 8 9 8 8 8 8 8 9 10 10 11 12 12 11 10 10 9 9 9 10 10 11 9 9 9
10 10 8 10 11 10 12 9 5 5 3 3 4 5 7 5 4 6 6 5 7 7 8 8 8 8 8 8 9 9 10 11 10 10 10 10 9 9 9 9 9 9 10 10
10 9 9 11 10 9 9 7 6 4 2 6 5 6 7 5 4 5 5 4 4 5 6 6 6 7 8 8 9 9 10 10 10 11 10 10 11 10 10 10 9 8 9 8
9 9 11 6 4 5 5 3 2 5 7 8 8 9 10 8 5 5 6 5 4 3 4 5 5 5 6 8 8 9 9 9 10 11 11 11 10 9 9 8 8 8 8 8
7 9 8 3 1 2 1 1 7 9 8 8 9 10 10 8 7 9 9 7 6 4 3 3 4 5 6 6 7 7 8 7 8 9 9 9 9 8 8 7 7 7 6 6
7 8 7 1 6 5 1 2 7 8 7 6 4 3 5 7 10 10 10 8 7 7 6 6 3 4 6 5 5 5 6 6 6 6 7 6 6 6 6 6 6 6 5 5
10 9 3 4 6 5 2 2 6 7 7 7 6 5 6 9 10 10 9 9 9 9 9 7 6 6 6 5 4 4 4 5 5 5 6 5 4 4 4 4 4 4 4 3
7 7 2 7 5 4 4 4 6 7 7 8 9 9 10 11 11 11 11 11 11 11 11 10 9 8 9 7 5 4 5 5 5 5 4 4 4 4 4 4 4 4 3 3
1 2 7 6 6 5 4 4 5 6 6 7 9 10 11 12 11 12 12 11 11 12 12 12 11 10 9 7 6 7 8 7 7 7 6 5 5 5 3 3 2 2 2 2
4 6 8 8 9 8 7 7 6 6 7 9 11 12 12 11 11 11 11 12 12 13 14 13 12 12 10 8 7 8 8 8 8 8 8 7 6 6 5 3 2 2 1 1
5 7 7 8 9 9 9 9 10 12 12 13 14 14 13 12 12 12 12 12 12 12 12 12 11 11 11 9 8 8 8 7 7 7 7 7 7 7 6 6 5 4 3 3
4 6 6 7 7 9 10 10 11 13 14 13 14 15 14 13 12 12 12 12 12 13 13 12 11 11 11 9 8 7 7 6 5 5 5 6 7 8 12 9 10 11 10 7
8 11 12 11 10 11 11 12 13 14 15 14 14 14 14 14 13 13 13 13 12 12 12 11 11 11 10 9 8 7 7 5 4 4 5 5 5 6 6 5 8 9 9 8
10 12 12 11 11 11 13 15 15 15 15 14 13 13 14 14 13 13 12 11 11 11 11 11 11 10 9 8 7 7 7 6 5 4 4 4 4 3 4 5 5 4 4 4
8 11 13 13 12 12 13 14 15 14 14 14 13 13 13 13 12 11 10 9 10 11 11 11 11 10 9 9 8 7 7 6 5 5 4 4 4 4 4 4 4 4 5 3
9 12 13 13 14 13 13 14 15 14 14 14 14 13 13 13 12 11 11 11 11 12 10 10 10 9 9 9 8 5 5 7 6 4 5 5 5 5 5 4 5 5 6 5
10 11 13 13 13 13 13 13 14 14 13 14 13 13 12 12 11 11 11 11 11 11 10 10 9 8 9 10 9 6 6 6 6 6 7 7 7 6 6 5 5 6 6 6
8 10 11 12 13 13 14 14 14 14 13 14 13 12 11 11 10 10 10 10 10 11 11 10 10 10 10 11 9 7 6 7 7 8 7 6 6 6 6 6 6 6 5 5
10 11 12 13 13 13 13 13 14 13 13 13 12 12 11 11 10 9 9 10 10 10 9 10 10 10 10 12 11 6 7 8 8 8 7 7 6 7 7 7 7 7 7 6
11 12 13 13 13 14 14 13 13 12 12 12 12 11 11 10 10 10 11 11 9 8 8 9 9 9 10 11 11 7 9 9 8 7 7 7 7 7 7 8 8 7 7 6
12 14 14 14 14 14 13 12 12 12 12 11 11 11 10 9 9 9 9 9 9 8 7 9 9 9 9 9 8 7 8 8 8 7 7 7 7 8 8 8 8 8 8 7
11 12 14 14 14 13 12 11 11 12 12 11 11 10 9 9 10 10 11 8 8 9 7 8 9 10 12 10 7 8 8 8 8 7 7 7 7 7 8 8 7 7 7 7
11 12 13 13 13 13 12 11 11 11 11 11 10 9 8 7 7 8 8 8 8 9 8 8 9 11 13 7 7 8 8 9 8 8 8 8 7 7 7 8 8 7 7 7
12 12 12 12 12 12 11 11 10 10 10 9 9 8 7 7 8 8 8 8 9 8 7 7 9 10 8 6 7 7 8 8 7 7 7 7 7 7 7 7 7 7 7 8
11 12 12 11 10 9 10 10 10 9 8 7 8 8 8 7 7 7 6 7 6 5 6 5 5 6 6 7 7 8 8 8 7 7 7 7 7 7 7 7 7 7 6 7
10 9 9 8 7 6 7 6 6 7 7 7 7 7 7 6 7 6 5 6 6 6 5 5 5 4 6 7 7 7 6 6 6 7 7 7 7 7 7 7 7 7 7 7
9 8 6 6 6 6 6 6 6 6 6 6 6 6 6 6 5 5 5 5 5 5 5 4 5 5 5 6 6 6 6 6 6 6 6 6 6 6 6 7 7 7 7 8
Wind_Direction
246 228 243 258 260 255 251 253 254 246 230 198 180 136 91 84 107 125 127 133 136 142 145 149 155 161 169 173 175 175 176 182 182 182 183 187 186 186 184 184 190 189 192 198
246 234 237 251 256 261 260 255 240 225 214 136 132 113 90 71 75 98 112 126 139 144 151 158 164 169 173 176 175 174 179 184 182 182 184 187 188 188 187 191 194 191 196 203
251 240 232 239 246 245 258 262 237 234 152 119 93 76 77 71 63 84 92 94 116 145 150 158 171 175 175 178 175 179 184 186 185 186 188 190 195 191 192 193 195 197 200 201
248 245 242 236 238 256 258 293 17 82 93 90 97 83 69 53 47 57 66 67 69 83 140 159 170 172 173 176 175 182 187 191 189 190 193 193 195 193 193 191 193 197 201 203
248 245 250 239 306 285 231 72 64 86 86 86 97 95 70 54 58 62 59 54 46 44 77 120 151 163 161 166 172 178 183 187 187 186 189 188 190 190 188 186 193 196 198 206
245 252 255 286 349 353 89 114 61 81 84 87 100 88 73 61 66 62 56 49 46 47 56 67 89 138 146 161 162 171 177 179 178 172 175 183 185 181 181 184 191 194 198 203
239 248 249 10 341 332 273 95 60 74 76 73 68 80 93 78 69 64 60 53 52 54 54 49 57 84 105 110 121 144 149 143 141 144 152 155 156 158 162 173 177 183 177 170
229 235 224 19 13 33 51 51 68 75 82 87 96 98 92 83 75 68 63 59 61 61 56 47 49 68 75 69 68 86 98 102 109 111 130 145 135 137 143 157 163 172 166 164
63 96 87 76 78 77 80 74 73 87 93 97 104 99 93 86 79 73 68 64 63 66 62 53 48 55 65 61 67 73 76 79 82 86 82 77 93 104 107 116 149 157 157 161
100 99 88 81 80 74 72 76 77 87 93 101 100 98 94 88 83 76 69 65 65 65 63 55 49 48 48 51 64 76 78 78 80 82 80 72 71 71 74 71 79 97 107 125
123 117 100 80 77 77 74 79 84 85 85 94 98 96 93 89 82 78 74 70 68 67 64 58 52 48 43 44 56 71 76 81 84 85 91 83 76 63 70 61 58 63 57 60
122 124 117 104 90 86 84 83 85 88 88 88 92 95 93 89 85 82 79 74 71 69 66 59 54 49 44 38 45 57 66 69 87 99 102 106 104 83 57 69 70 73 72 77
98 105 107 105 94 88 91 90 88 91 94 93 91 94 92 90 86 83 79 76 74 72 68 62 57 51 42 36 40 49 57 56 66 82 96 105 114 121 113 82 66 68 73 76
103 108 107 103 100 100 100 98 96 94 95 95 95 95 94 91 87 82 79 78 75 74 69 63 58 51 42 38 40 46 52 52 48 60 71 87 96 105 118 127 124 109 91 86
104 112 117 115 113 113 111 110 107 105 103 99 97 96 95 93 90 86 83 82 75 71 65 61 55 44 33 35 43 48 49 41 38 43 59 66 67 71 73 76 87 110 116 98
109 116 121 121 119 119 117 116 114 113 110 107 103 100 97 95 91 86 81 76 73 69 62 57 52 42 34 30 30 56 64 49 35 41 51 52 53 55 58 58 59 60 67 59
130 131 128 126 126 124 121 119 118 117 115 114 113 110 106 102 96 91 85 79 75 69 61 54 46 40 38 28 19 32 43 48 37 46 52 42 40 44 45 44 49 60 63 54
132 132 134 131 128 125 123 123 121 121 120 119 117 114 111 106 101 98 94 89 81 70 57 49 40 38 39 29 13 20 30 38 42 44 48 40 31 36 40 44 44 47 50 50
130 132 128 125 127 126 122 121 121 119 119 119 116 110 106 102 100 98 90 83 77 70 54 45 38 40 40 26 10 21 33 37 42 44 42 37 37 38 37 38 36 38 35 34
125 123 121 125 125 121 119 119 120 119 118 115 112 107 101 96 93 91 85 74 63 60 56 43 40 40 34 17 4 28 37 38 38 39 39 38 38 39 38 39 39 36 34 33
123 122 121 120 116 114 114 117 117 113 110 107 105 102 97 94 91 87 86 79 59 41 51 53 44 32 25 1 357 34 39 38 38 40 40 40 40 42 43 41 38 35 30 27
114 116 114 112 109 108 106 107 109 109 105 102 98 96 95 93 91 84 77 75 67 40 44 49 43 23 4 358 34 41 41 40 40 41 40 42 43 43 42 39 37 34 30 24
106 105 106 108 108 107 106 105 103 103 101 99 95 91 85 78 80 85 81 69 67 54 53 48 22 9 360 20 43 45 45 43 41 41 42 44 43 42 39 37 33 27 24 22
105 106 107 108 109 109 108 105 103 102 102 100 97 94 90 86 82 82 87 80 64 66 65 48 19 7 0 37 49 50 49 43 40 41 42 42 42 41 37 34 30 26 26 24
102 104 104 105 107 109 110 112 112 109 106 102 98 90 81 80 84 86 89 93 104 96 85 68 24 4 25 47 50 49 52 46 41 39 44 41 39 38 33 30 29 27 27 25
96 97 95 92 94 101 106 106 109 110 108 104 97 92 90 92 96 97 96 91 83 75 75 75 63 48 50 56 58 54 52 54 50 49 47 44 41 37 30 24 26 25 24 25
96 96 100 104 98 95 99 95 90 89 90 94 95 92 88 86 85 84 86 86 79 71 65 62 62 59 56 55 60 60 56 53 50 48 49 47 40 33 30 28 29 29 25 28
Height
1414 1417 1419 1422 1419 1416 1418 1419 1427 1432 1434 1434 1433 1433 1434 1434 1435 1438 1441 1445 1449 1452 1456 1459 1463 1466 1468 1470 1473 1476 1479 1483 1486 1490 1494 1497 1500 1503 1506 1510 1513 1516 1519 1522
1418 1415 1418 1422 1418 1417 1418 1416 1421 1428 1432 1430 1432 1433 1435 1438 1439 1440 1443 1446 1449 1452 1455 1458 1462 1464 1467 1469 1472 1475 1478 1481 1485 1488 1492 1495 1498 1501 1504 1507 1510 1513 1516 1518
1424 1417 1422 1430 1419 1418 1418 1413 1418 1426 1428 1428 1432 1435 1438 1440 1442 1442 1445 1448 1450 1452 1454 1457 1460 1462 1465 1468 1471 1474 1477 1480 1483 1486 1490 1493 1496 1499 1502 1504 1507 1510 1512 1514
1423 1426 1438 1421 1410 1412 1415 1415 1414 1420 1425 1429 1434 1438 1441 1443 1444 1446 1447 1449 1451 1453 1454 1456 1459 1461 1464 1467 1469 1472 1475 1478 1481 1484 1487 1490 1493 1496 1499 1502 1504 1506 1509 1511
1424 1430 1427 1418 1414 1414 1418 1422 1421 1425 1429 1433 1436 1439 1444 1446 1447 1448 1448 1450 1452 1453 1454 1456 1458 1460 1462 1465 1467 1470 1473 1475 1478 1481 1484 1487 1490 1492 1495 1498 1501 1503 1505 1507
1426 1433 1436 1429 1419 1417 1420 1431 1429 1430 1432 1436 1437 1443 1450 1450 1450 1450 1450 1452 1452 1453 1454 1455 1457 1459 1461 1463 1466 1468 1471 1473 1476 1478 1481 1483 1486 1489 1492 1494 1497 1499 1501 1503
1428 1432 1429 1428 1424 1421 1434 1440 1436 1436 1437 1440 1443 1448 1452 1452 1452 1452 1453 1454 1454 1454 1455 1456 1457 1459 1460 1463 1465 1468 1470 1472 1474 1475 1478 1480 1483 1486 1489 1491 1494 1496 1498 1499
1425 1433 1439 1432 1430 1434 1440 1438 1437 1439 1441 1443 1447 1450 1452 1453 1454 1454 1455 1455 1455 1455 1457 1458 1459 1459 1460 1463 1465 1467 1469 1470 1472 1474 1477 1479 1481 1484 1486 1489 1491 1493 1495 1496
1429 1436 1435 1435 1437 1439 1440 1439 1440 1442 1444 1446 1448 1451 1453 1455 1456 1457 1457 1458 1459 1459 1459 1461 1461 1462 1463 1465 1466 1467 1469 1470 1472 1474 1476 1478 1480 1482 1484 1487 1489 1491 1492 1493
1430 1434 1437 1439 1439 1440 1440 1441 1443 1444 1446 1448 1450 1453 1455 1458 1459 1460 1461 1461 1462 1462 1462 1464 1465 1465 1466 1467 1468 1469 1470 1472 1473 1475 1477 1478 1480 1482 1483 1486 1487 1489 1490 1491
1432 1436 1438 1442 1442 1443 1444 1444 1445 1447 1449 1451 1453 1455 1458 1460 1462 1463 1464 1465 1466 1466 1467 1468 1468 1469 1469 1469 1470 1471 1472 1474 1475 1477 1479 1480 1481 1483 1484 1486 1487 1488 1489 1491
1434 1436 1439 1444 1445 1445 1446 1448 1448 1450 1453 1455 1456 1459 1461 1463 1466 1467 1469 1469 1470 1471 1471 1472 1472 1472 1473 1473 1474 1474 1475 1476 1478 1479 1481 1482 1483 1484 1485 1487 1488 1489 1490 1491
1434 1437 1441 1445 1446 1448 1449 1451 1453 1454 1456 1459 1461 1463 1465 1467 1470 1472 1473 1474 1475 1475 1476 1477 1477 1477 1477 1478 1477 1478 1478 1479 1481 1482 1482 1484 1484 1485 1486 1488 1489 1490 1490 1491
1437 1440 1443 1447 1449 1451 1453 1455 1457 1459 1461 1464 1467 1469 1470 1472 1475 1477 1478 1479 1480 1480 1481 1481 1482 1482 1482 1482 1481 1481 1482 1483 1484 1484 1485 1486 1487 1487 1488 1488 1489 1489 1490 1491
1441 1443 1446 1449 1452 1455 1457 1459 1461 1464 1467 1470 1472 1474 1475 1477 1480 1482 1483 1484 1485 1485 1486 1486 1486 1486 1486 1485 1485 1485 1485 1485 1486 1487 1487 1488 1489 1489 1489 1490 1490 1490 1491 1491
1444 1446 1449 1452 1455 1458 1460 1463 1465 1469 1472 1474 1476 1479 1481 1482 1485 1487 1488 1489 1489 1490 1490 1490 1490 1490 1489 1488 1488 1488 1488 1488 1489 1489 1490 1490 1491 1491 1491 1492 1492 1492 1491 1491
1446 1449 1452 1455 1458 1461 1464 1467 1469 1473 1476 1479 1481 1483 1485 1487 1489 1491 1492 1493 1493 1493 1494 1493 1493 1493 1492 1491 1491 1492 1492 1491 1491 1491 1492 1492 1493 1493 1494 1494 1494 1493 1493 1493
1449 1451 1454 1457 1460 1463 1467 1470 1474 1477 1480 1483 1485 1487 1489 1491 1493 1495 1496 1496 1497 1497 1497 1497 1497 1496 1495 1494 1494 1494 1494 1494 1494 1494 1494 1494 1494 1495 1495 1495 1495 1495 1494 1494
1451 1453 1456 1459 1463 1466 1470 1474 1477 1480 1483 1486 1488 1491 1493 1495 1496 1498 1499 1499 1500 1500 1500 1500 1499 1499 1498 1497 1497 1496 1496 1496 1496 1496 1496 1496 1496 1496 1496 1496 1496 1496 1495 1495
1453 1456 1459 1463 1466 1469 1473 1477 1480 1483 1486 1489 1491 1494 1496 1498 1499 1500 1501 1502 1502 1503 1503 1503 1502 1501 1500 1500 1499 1499 1499 1498 1498 1498 1498 1498 1498 1498 1498 1497 1497 1497 1496 1496
1456 1459 1462 1466 1469 1473 1476 1480 1483 1486 1489 1492 1494 1497 1499 1501 1502 1503 1504 1504 1505 1505 1505 1504 1503 1503 1503 1502 1502 1502 1501 1501 1501 1500 1500 1500 1500 1499 1499 1499 1498 1498 1497 1496
1460 1463 1466 1470 1473 1477 1481 1484 1487 1490 1493 1495 1497 1500 1501 1503 1504 1505 1506 1506 1507 1507 1506 1506 1505 1505 1504 1504 1504 1504 1503 1503 1503 1502 1502 1502 1501 1501 1501 1500 1500 1499 1498 1497
1464 1467 1470 1474 1478 1481 1485 1488 1491 1493 1496 1498 1500 1502 1504 1505 1506 1507 1508 1508 1508 1508 1508 1507 1507 1506 1506 1506 1506 1505 1505 1505 1505 1504 1504 1504 1503 1503 1502 1501 1501 1500 1499 1498
1469 1472 1476 1479 1482 1485 1489 1492 1494 1497 1499 1501 1503 1505 1506 1507 1508 1509 1509 1509 1509 1509 1509 1509 1508 1508 1508 1508 1508 1507 1507 1507 1507 1506 1506 1505 1505 1504 1503 1503 1502 1501 1500 1499
1474 1477 1480 1484 1487 1489 1492 1495 1498 1500 1502 1504 1506 1507 1508 1509 1511 1511 1511 1511 1511 1512 1511 1511 1510 1510 1510 1510 1510 1509 1509 1508 1508 1508 1507 1506 1506 1505 1504 1504 1503 1502 1500 1499
1479 1482 1485 1487 1490 1493 1495 1498 1500 1502 1504 1506 1507 1509 1510 1511 1512 1513 1513 1513 1513 1513 1513 1513 1512 1512 1512 1512 1511 1511 1511 1510 1510 1509 1508 1508 1507 1506 1505 1504 1504 1502 1501 1499
1484 1486 1489 1492 1494 1496 1498 1500 1502 1504 1506 1507 1509 1510 1511 1512 1513 1514 1514 1514 1514 1514 1514 1514 1514 1513 1513 1513 1513 1512 1512 1512 1511 1510 1510 1509 1508 1507 1506 1505 1504 1503 1501 1499